Arch, NM

4:41 AM MDT on April 28, 2015 (GMT -0600)
S of ENMU | | Change Station
CLOSE
Current Station
Personal Weather Station
Location: Portales, NM
Elevation: 4078 ft
Nearby Weather Stations

Elev 4078 ft 34.17 °N, 103.35 °W | Updated 0 second ago

Mostly Cloudy
Mostly Cloudy
40.3 °F
Feels Like 40 °F
N
1.3
Wind Variable Wind from North
Gusts 4.3 mph

Today
High -- | Low -- °F
--% Chance of Precip.
Yesterday
High -- | Low -- °F
Precip. -- in
6:07 AM 7:34 PM
Waxing Gibbous, 72% visible
Pressure 30.20 in
Visibility 10.0 miles
Clouds Few 9000 ft
Windchill 40 °F
Dew Point 35 °F
Humidity 82%
Rainfall 0.00 in
Snow Depth Not available.
UV 0 out of 12
Pollen 5.60 out of 12
Air Quality Not available.
Flu Activity Local Activity
METAR KCVS 280958Z AUTO 35009KT 10SM FEW090 03/02 A3020 RMK AO2 SLP227 T00340022 $

More Conditions Fewer Conditions

Pressure 30.20 in
Visibility 10.0 miles
Clouds Few 9000 ft
Windchill 40 °F
Dew Point 35 °F
Humidity 82%
Rainfall 0.00 in
Snow Depth Not available.
UV 0 out of 12
Pollen 5.60 out of 12
Air Quality Not available.
Flu Activity Local Activity
METAR KCVS 280958Z AUTO 35009KT 10SM FEW090 03/02 A3020 RMK AO2 SLP227 T00340022 $

More Conditions Fewer Conditions

10-Day Weather Forecast

Almanac

Astronomy

Apr. 28, 2015 Rise Set
Actual Time
Civil Twilight
Nautical Twilight
Astronomical Twilight
Moon
Length of Visible Light
Length of Day
Tomorrow will be .
, % of the Moon is Illuminated

Today's Extremes

State Highs State Lows

Community

WunderPhotos

Upload Photos

1,817,603 photos uploaded!

WunderBlogs® & News

Nearby

Air Quality

  Air Quality AQ Index Pollutant
Not available.

Snow Depth

Station Depth Elevation

Earthquake Activity

City Distance Mag. Time & Date
Minimum magnitude displayed is 2.5.

Coastal Water Temperatures

Place Temperature

Stations

Nearby Weather Stations

Station Location Temp. Windchill Dew Point Humidity Wind Precip. Elev Updated Type